Location: Ellerstadt
(49.4644°N, 8.2615°E)
Time: 04:57:16
(UTC+00:00)

SeaSat 1 - Pass Details

Date: 03 March 2021
Orbit: 744 x 747 km, 108.0° (Epoch: 11 April)

Event Time Altitude Azimuth Distance (km) Brightness Sun altitude
Rises 19:32:44 0° 26° (NNE) 3,203 5.6 -23.2°
Reaches altitude 10° 19:35:04 10° 20° (NNE) 2,275 4.9 -23.6°
Maximum altitude 19:39:47 47° 308° (NW) 988 3.4 -24.3°
Drops below altitude 10° 19:44:30 10° 236° (SW) 2,264 5.3 -25.0°
Sets 19:46:49 0° 230° (SW) 3,184 6.1 -25.4°
